Weather History for Silver Bay, MN

Change the Weather History Date:

Thursday, November 15, 2012

  Actual Average Record
Temperature  
Mean Temperature 30 °F -  
Max Temperature 44 °F 34 °F 57 °F (2001)
Min Temperature 17 °F 19 °F -2 °F (2002)
Degree Days  
Heating Degree Days 34    
Moisture  
Dew Point 14 °F    
Average Humidity 60    
Maximum Humidity 93    
Minimum Humidity 16    
Precipitation  
Precipitation 0.00 in - - ()
Sea Level Pressure  
Sea Level Pressure 30.19 in    
Wind  
Wind Speed 2 mph (NW)    
Max Wind Speed 12 mph    
Max Gust Speed 21 mph    
Visibility 9 miles    
Events      
Averages and records for this station are not official NWS values.
T = Trace of Precipitation, MM = Missing Value Source: NWS Daily Summary

Daily Weather History Graph

Daily Weather History Graph

Search for Another Location

Airport:

Trip Planner

Search our weather history database for the weather conditions in past years. The results will help you decide how hot, cold, wet, or windy it might be!

Date:

Astronomy

Nov. 15, 2012 Rise Set
Actual Time 7:10 AM CST 4:29 PM CST
Civil Twilight 6:37 AM CST 5:03 PM CST
Nautical Twilight 5:59 AM CST 5:40 PM CST
Astronomical Twilight 5:23 AM CST 6:16 PM CST
Moon 9:11 AM CST (11/15) 6:16 PM CST (11/15)
Length of Visible Light 10h 25m
Length of Day
9h 19m
Waxing Crescent, 5% of the Moon is Illuminated
Nov 15
Waxing Crescent
Nov 20
First Quarter
Nov 28
Full
Dec 6
Last Quarter
Dec 13
New

Hourly Weather History & Observations

Time (CST) Temp. Windchill Dew Point Humidity Pressure Visibility Wind Dir Wind Speed Gust Speed Precip Events Conditions
12:13 AM 19.4 °F - 15.8 °F 86% 30.10 in 10.0 mi Calm Calm - N/A   Clear
12:33 AM 19.4 °F - 17.6 °F 93% 30.09 in 10.0 mi Calm Calm - N/A   Clear
12:53 AM 19.4 °F - 15.8 °F 86% 30.08 in 10.0 mi Calm Calm - N/A   Clear
1:13 AM 19.4 °F - 15.8 °F 86% 30.08 in 10.0 mi Calm Calm - N/A   Clear
1:33 AM 19.4 °F - 15.8 °F 86% 30.08 in 10.0 mi Calm Calm - N/A   Clear
1:53 AM 19.4 °F - 15.8 °F 86% 30.07 in 7.0 mi Calm Calm - N/A   Clear
2:13 AM 19.4 °F - 15.8 °F 86% 30.07 in 10.0 mi Calm Calm - N/A   Clear
2:33 AM 17.6 °F - 15.8 °F 93% 30.07 in 7.0 mi Calm Calm - N/A   Clear
2:53 AM 17.6 °F - 15.8 °F 93% 30.07 in 10.0 mi Calm Calm - N/A   Clear
3:13 AM 17.6 °F - 14.0 °F 86% 30.07 in 10.0 mi Calm Calm - N/A   Clear
3:33 AM 17.6 °F - 14.0 °F 86% 30.06 in 10.0 mi Calm Calm - N/A   Mostly Cloudy
3:53 AM 19.4 °F - 17.6 °F 93% 30.06 in 10.0 mi Calm Calm - N/A   Overcast
4:13 AM 19.4 °F - 17.6 °F 93% 30.06 in 10.0 mi Calm Calm - N/A   Mostly Cloudy
4:33 AM 21.2 °F - 17.6 °F 86% 30.05 in 10.0 mi Calm Calm - N/A   Overcast
4:53 AM 21.2 °F - 17.6 °F 86% 30.05 in 10.0 mi Calm Calm - N/A   Overcast
5:13 AM 23.0 °F - 19.4 °F 86% 30.05 in 7.0 mi Calm Calm - N/A   Mostly Cloudy
5:33 AM 23.0 °F - 19.4 °F 86% 30.05 in 5.0 mi Calm Calm - N/A   Mostly Cloudy
5:53 AM 21.2 °F - 19.4 °F 93% 30.05 in 7.0 mi Calm Calm - N/A   Scattered Clouds
6:13 AM 23.0 °F - 21.2 °F 93% 30.05 in 4.0 mi Calm Calm - N/A   Overcast
6:33 AM 23.0 °F - 21.2 °F 93% 30.05 in 7.0 mi Calm Calm - N/A   Overcast
6:53 AM 24.8 °F - 21.2 °F 86% 30.05 in 5.0 mi Calm Calm - N/A   Overcast
7:13 AM 26.6 °F - 23.0 °F 86% 30.06 in 4.0 mi Calm Calm - N/A   Overcast
7:33 AM 28.4 °F - 24.8 °F 86% 30.07 in 5.0 mi Calm Calm - N/A   Mostly Cloudy
7:53 AM 28.4 °F - 26.6 °F 93% 30.07 in 5.0 mi Calm Calm - N/A   Mostly Cloudy
8:13 AM 30.2 °F - 26.6 °F 86% 30.08 in 5.0 mi Calm Calm - N/A   Scattered Clouds
8:34 AM 32.0 °F - 28.4 °F 87% 30.08 in 7.0 mi Calm Calm - N/A   Scattered Clouds
8:53 AM 33.8 °F 30.8 °F 30.2 °F 87% 30.08 in 7.0 mi West 3.5 mph - N/A   Scattered Clouds
9:13 AM 37.4 °F - 32.0 °F 81% 30.08 in 10.0 mi Calm Calm - N/A   Clear
9:33 AM 39.2 °F 34.2 °F 30.2 °F 70% 30.09 in 10.0 mi West 6.9 mph - N/A   Clear
9:53 AM 42.8 °F 39.3 °F 28.4 °F 57% 30.09 in 10.0 mi NW 5.8 mph 16.1 mph N/A   Clear
10:13 AM 42.8 °F 37.0 °F 26.6 °F 53% 30.10 in 10.0 mi NW 10.4 mph 18.4 mph N/A   Clear
10:33 AM 42.8 °F 36.6 °F 26.6 °F 53% 30.10 in 10.0 mi NW 11.5 mph 18.4 mph N/A   Clear
10:53 AM 42.8 °F 36.6 °F 24.8 °F 49% 30.12 in 10.0 mi NW 11.5 mph 19.6 mph N/A   Clear
11:13 AM 42.8 °F 40.1 °F 21.2 °F 42% 30.12 in 10.0 mi NW 4.6 mph 18.4 mph N/A   Clear
11:33 AM 44.6 °F 40.2 °F 19.4 °F 37% 30.13 in 10.0 mi WNW 8.1 mph - N/A   Clear
11:53 AM 42.8 °F 38.6 °F 17.6 °F 36% 30.14 in 10.0 mi NW 6.9 mph 17.3 mph N/A   Clear
12:13 PM 42.8 °F 39.3 °F 15.8 °F 34% 30.14 in 10.0 mi WNW 5.8 mph - N/A   Clear
12:33 PM 42.8 °F 36.6 °F 10.4 °F 27% 30.15 in 10.0 mi NW 11.5 mph 19.6 mph N/A   Clear
12:53 PM 44.6 °F 40.7 °F 10.4 °F 25% 30.16 in 10.0 mi WNW 6.9 mph 19.6 mph N/A   Clear
1:13 PM 42.8 °F 37.0 °F 5.0 °F 21% 30.16 in 10.0 mi NW 10.4 mph 19.6 mph N/A   Clear
1:33 PM 42.8 °F 37.0 °F 5.0 °F 21% 30.17 in 10.0 mi WNW 10.4 mph 20.7 mph N/A   Clear
1:53 PM 42.8 °F 36.6 °F -0.4 °F 16% 30.18 in 10.0 mi NW 11.5 mph 20.7 mph N/A   Clear
2:13 PM 42.8 °F 37.0 °F -0.4 °F 16% 30.18 in 10.0 mi WNW 10.4 mph 20.7 mph N/A   Clear
2:33 PM 41.0 °F 35.8 °F -0.4 °F 18% 30.20 in 10.0 mi NW 8.1 mph - N/A   Clear
2:53 PM 39.2 °F 33.6 °F 1.4 °F 21% 30.21 in 10.0 mi NW 8.1 mph 19.6 mph N/A   Clear
3:13 PM 39.2 °F 35.0 °F 3.2 °F 22% 30.23 in 10.0 mi NW 5.8 mph - N/A   Clear
3:33 PM 37.4 °F 30.8 °F 3.2 °F 24% 30.24 in 10.0 mi NNW 9.2 mph - N/A   Clear
3:53 PM 37.4 °F 31.4 °F 3.2 °F 24% 30.26 in 10.0 mi NW 8.1 mph - N/A   Clear
4:13 PM 35.6 °F 32.8 °F 3.2 °F 26% 30.27 in 10.0 mi NW 3.5 mph - N/A   Clear
4:33 PM 33.8 °F 30.8 °F 3.2 °F 28% 30.28 in 10.0 mi NW 3.5 mph - N/A   Clear
4:53 PM 32.0 °F 27.5 °F 3.2 °F 30% 30.29 in 10.0 mi NW 4.6 mph - N/A   Clear
5:13 PM 30.2 °F - 3.2 °F 32% 30.30 in 10.0 mi Calm Calm - N/A   Clear
5:33 PM 28.4 °F - 6.8 °F 40% 30.31 in 10.0 mi Calm Calm - N/A   Clear
5:53 PM 28.4 °F - 6.8 °F 40% 30.32 in 10.0 mi Calm Calm - N/A   Clear
6:13 PM 26.6 °F - 6.8 °F 43% 30.33 in 10.0 mi Calm Calm - N/A   Clear
6:33 PM 26.6 °F - 8.6 °F 47% 30.34 in 10.0 mi Calm Calm - N/A   Clear
6:53 PM 26.6 °F 22.6 °F 8.6 °F 47% 30.34 in 10.0 mi NNW 3.5 mph - N/A   Clear
7:33 PM 26.6 °F - 8.6 °F 47% 30.35 in 10.0 mi Calm Calm - N/A   Clear
7:53 PM 26.6 °F - 10.4 °F 51% 30.36 in 10.0 mi Calm Calm - N/A   Clear
8:13 PM 24.8 °F - 10.4 °F 54% 30.37 in 10.0 mi Calm Calm - N/A   Clear
8:33 PM 24.8 °F - 10.4 °F 54% 30.38 in 10.0 mi Calm Calm - N/A   Clear
8:53 PM 24.8 °F - 10.4 °F 54% 30.39 in 10.0 mi Calm Calm - N/A   Clear
9:14 PM 24.8 °F 19.1 °F 10.4 °F 54% 30.39 in 10.0 mi North 4.6 mph - N/A   Clear
9:33 PM 24.8 °F - 10.4 °F 54% 30.39 in 10.0 mi Calm Calm - N/A   Clear
9:53 PM 24.8 °F 19.1 °F 10.4 °F 54% 30.40 in 10.0 mi NNW 4.6 mph - N/A   Clear
10:13 PM 24.8 °F - 10.4 °F 54% 30.40 in 10.0 mi Calm Calm - N/A   Clear
10:33 PM 21.2 °F - 10.4 °F 63% 30.41 in 10.0 mi Calm Calm - N/A   Clear
10:53 PM 23.0 °F - 10.4 °F 59% 30.41 in 10.0 mi Calm Calm - N/A   Clear
11:13 PM 21.2 °F - 10.4 °F 63% 30.42 in 10.0 mi Calm Calm - N/A   Clear
11:33 PM 19.4 °F - 10.4 °F 68% 30.43 in 10.0 mi Calm Calm - N/A   Clear
11:53 PM 17.6 °F - 10.4 °F 73% 30.43 in 10.0 mi Calm Calm - N/A   Clear